Wolf 59 — CGBP — position and weather

sailwx.info

Track history (hours):
 
Tides and Currents Weather Stations Pressure Air Temp Water Temp Dewpoint Dewpoint Depression Visibility Wind Speed Wind Dir Waves Ship Positions

Wolf 59

Last reported at 2014-Nov-23 13:09 UTC. Time now 2014-Nov-23 16:16 UTC.
Position N 48°26' W 123°26'.

Length 33 m; draft 2.6 m.

Type: Military. MMSI: 316011515.

Date/timePositionNaut miles runAvg speedWind from/ knotsBaromVisibWave heightAir tempDewpointWater temp
2014-Nov-23 13:09N 48°26' W 123°26'0 0.0
2014-Nov-23 11:33N 48°26' W 123°26'0 0.0
2014-Nov-21 23:24N 48°26' W 123°26'2 0.1
2014-Nov-20 23:33N 48°24' W 123°27'5 4.4
2014-Nov-20 22:31N 48°20' W 123°29'6 5.9
2014-Nov-20 21:32N 48°25' W 123°27'1 0.8
2014-Nov-20 20:31N 48°26' W 123°26'0 0.0
2014-Nov-20 19:28N 48°26' W 123°26'0 0.0
2014-Nov-20 18:31N 48°26' W 123°26'0 0.0
2014-Nov-20 17:22N 48°26' W 123°26'0 0.0
2014-Nov-20 16:31N 48°26' W 123°26'0 0.0
2014-Nov-20 14:28N 48°26' W 123°26'0 0.0
2014-Nov-20 13:22N 48°26' W 123°26'0 0.0
2014-Nov-20 12:19N 48°26' W 123°26'0 0.0
2014-Nov-20 11:10N 48°26' W 123°26'0 0.0
2014-Nov-20 10:28N 48°26' W 123°26'0 0.0
2014-Nov-20 09:16N 48°26' W 123°26'0 0.0
2014-Nov-20 08:28N 48°26' W 123°26'0 0.0
2014-Nov-20 02:04N 48°26' W 123°26'0 0.0
2014-Nov-20 00:25N 48°26' W 123°26'0 0.0
2014-Nov-19 23:31N 48°26' W 123°26'0 0.0
2014-Nov-19 22:31N 48°26' W 123°26'0 0.0
2014-Nov-19 21:31N 48°26' W 123°26'0 0.0
2014-Nov-19 19:31N 48°26' W 123°26'0 0.0
2014-Nov-19 17:28N 48°26' W 123°26'0 0.0
2014-Nov-19 16:31N 48°26' W 123°26'0 0.0
2014-Nov-19 15:31N 48°26' W 123°26'0 0.0
2014-Nov-19 14:31N 48°26' W 123°26'0 0.0
2014-Nov-19 13:22N 48°26' W 123°26'0 0.0
2014-Nov-19 12:25N 48°26' W 123°26'0 0.0
2014-Nov-19 11:31N 48°26' W 123°26'0 0.0
2014-Nov-19 10:19N 48°26' W 123°26'0 0.0
2014-Nov-19 09:28N 48°26' W 123°26'0 0.0
2014-Nov-19 08:25N 48°26' W 123°26'0 0.0
2014-Nov-19 07:31N 48°26' W 123°26'0 0.0
2014-Nov-19 06:28N 48°26' W 123°26'0 0.0
2014-Nov-19 04:31N 48°26' W 123°26'0 0.0
2014-Nov-19 03:07N 48°26' W 123°26'0 0.0
2014-Nov-19 02:19N 48°26' W 123°26'0 0.0
2014-Nov-18 23:04N 48°26' W 123°26'0 0.0
2014-Nov-18 16:21N 48°26' W 123°26'0 0.0
2014-Nov-18 07:06N 48°26' W 123°26'0 0.0
2014-Nov-18 00:21N 48°26' W 123°26'0 0.0
2014-Nov-17 23:33N 48°26' W 123°26'0 0.0
2014-Nov-17 22:33N 48°26' W 123°26'0 0.0
2014-Nov-17 21:30N 48°26' W 123°26'0 0.0
2014-Nov-17 20:30N 48°26' W 123°26'0 0.0
2014-Nov-17 19:33N 48°26' W 123°26'3 2.6
2014-Nov-17 18:29N 48°23' W 123°27'3 2.6
2014-Nov-17 17:28N 48°26' W 123°26'0 0.0
2014-Nov-17 16:31N 48°26' W 123°26'0 0.0
2014-Nov-17 15:28N 48°26' W 123°26'0 0.0
2014-Nov-17 14:31N 48°26' W 123°26'0 0.0
2014-Nov-17 13:31N 48°26' W 123°26'0 0.0
2014-Nov-17 12:31N 48°26' W 123°26'0 0.0
2014-Nov-17 11:31N 48°26' W 123°26'0 0.0
2014-Nov-17 10:28N 48°26' W 123°26'0 0.0
2014-Nov-17 09:28N 48°26' W 123°26'0 0.0
2014-Nov-17 08:31N 48°26' W 123°26'0 0.0
2014-Nov-17 07:31N 48°26' W 123°26'0 0.0
2014-Nov-17 06:31N 48°26' W 123°26'0 0.0
2014-Nov-17 05:28N 48°26' W 123°26'0 0.0
2014-Nov-17 04:31N 48°26' W 123°26'0 0.0
2014-Nov-17 03:31N 48°26' W 123°26'0 0.0
2014-Nov-17 02:31N 48°26' W 123°26'0 0.0
2014-Nov-17 01:31N 48°26' W 123°26'0 0.0
2014-Nov-17 00:31N 48°26' W 123°26'0 0.0
2014-Nov-16 23:31N 48°26' W 123°26'0 0.0
2014-Nov-16 22:33N 48°26' W 123°26'1 1.3
2014-Nov-16 21:33N 48°25' W 123°27'8 8.1
2014-Nov-16 20:33N 48°24' W 123°15'1814.9
2014-Nov-16 19:22N 48°42' W 123°19'5 2.6
2014-Nov-16 17:31N 48°46' W 123°21'8 6.7
2014-Nov-16 16:22N 48°51' W 123°30'0 0.0
2014-Nov-16 15:31N 48°51' W 123°30'0 0.0
2014-Nov-16 14:31N 48°51' W 123°30'0 0.0
2014-Nov-16 13:31N 48°51' W 123°30'0 0.0
2014-Nov-16 12:31N 48°51' W 123°30'0 0.0
2014-Nov-16 11:31N 48°51' W 123°30'0 0.0
2014-Nov-16 10:31N 48°51' W 123°30'0 0.0
2014-Nov-16 09:31N 48°51' W 123°30'0 0.0
2014-Nov-16 08:31N 48°51' W 123°30'0 0.0
2014-Nov-16 07:31N 48°51' W 123°30'0 0.0
2014-Nov-16 06:31N 48°51' W 123°30'0 0.0
2014-Nov-16 05:28N 48°51' W 123°30'0 0.0
2014-Nov-16 04:31N 48°51' W 123°30'0 0.0
2014-Nov-16 03:31N 48°51' W 123°30'0 0.0
2014-Nov-16 02:31N 48°51' W 123°30'0 0.0
2014-Nov-16 01:31N 48°51' W 123°30'1 1.2
2014-Nov-16 00:22N 48°51' W 123°28'7 8.0
2014-Nov-15 23:32N 48°45' W 123°22'7 7.0
2014-Nov-15 22:33N 48°39' W 123°27'2 2.2
2014-Nov-15 21:31N 48°39' W 123°31'2 1.9
2014-Nov-15 20:33N 48°41' W 123°30'1110.6
2014-Nov-15 19:34N 48°40' W 123°14'1817.6
2014-Nov-15 18:33N 48°22' W 123°16'8 7.6
2014-Nov-15 17:33N 48°25' W 123°27'1 0.1
2014-Nov-14 20:22N 48°26' W 123°26'0 0.0
2014-Nov-14 15:04N 48°26' W 123°26'0 0.0
2014-Nov-14 06:07N 48°26' W 123°26'0 0.0
2014-Nov-14 05:31N 48°26' W 123°26'0 0.0
2014-Nov-14 04:25N 48°26' W 123°26'0 0.0
2014-Nov-14 03:31N 48°26' W 123°26'0 0.0
2014-Nov-14 02:31N 48°26' W 123°26'0 0.0
2014-Nov-14 01:25N 48°26' W 123°26'0 0.0
2014-Nov-13 22:31N 48°26' W 123°26'0 0.0
2014-Nov-13 21:31N 48°26' W 123°26'0 0.0
2014-Nov-13 19:31N 48°26' W 123°26'0 0.0
2014-Nov-13 18:25N 48°26' W 123°26'0 0.0
2014-Nov-13 17:07N 48°26' W 123°26'0 0.0
2014-Nov-13 16:19N 48°26' W 123°26'0 0.0
2014-Nov-13 15:31N 48°26' W 123°26'0 0.0
2014-Nov-13 14:31N 48°26' W 123°26'0 0.0
2014-Nov-13 13:31N 48°26' W 123°26'  
Track history (hours):
 
Tides and Currents Weather Stations Pressure Air Temp Water Temp Dewpoint Dewpoint Depression Visibility Wind Speed Wind Dir Waves Ship Positions

Wolf 59

Last reported at 2014-Nov-23 13:09 UTC. Time now 2014-Nov-23 16:16 UTC.
Position N 48°26' W 123°26'.

Length 33 m; draft 2.6 m.

Type: Military. MMSI: 316011515.

Date/timePositionNaut miles runAvg speedWind from/ knotsBaromVisibWave heightAir tempDewpointWater temp
2014-Nov-23 13:09N 48°26' W 123°26'0 0.0
2014-Nov-23 11:33N 48°26' W 123°26'0 0.0
2014-Nov-21 23:24N 48°26' W 123°26'2 0.1
2014-Nov-20 23:33N 48°24' W 123°27'5 4.4
2014-Nov-20 22:31N 48°20' W 123°29'6 5.9
2014-Nov-20 21:32N 48°25' W 123°27'1 0.8
2014-Nov-20 20:31N 48°26' W 123°26'0 0.0
2014-Nov-20 19:28N 48°26' W 123°26'0 0.0
2014-Nov-20 18:31N 48°26' W 123°26'0 0.0
2014-Nov-20 17:22N 48°26' W 123°26'0 0.0
2014-Nov-20 16:31N 48°26' W 123°26'0 0.0
2014-Nov-20 14:28N 48°26' W 123°26'0 0.0
2014-Nov-20 13:22N 48°26' W 123°26'0 0.0
2014-Nov-20 12:19N 48°26' W 123°26'0 0.0
2014-Nov-20 11:10N 48°26' W 123°26'0 0.0
2014-Nov-20 10:28N 48°26' W 123°26'0 0.0
2014-Nov-20 09:16N 48°26' W 123°26'0 0.0
2014-Nov-20 08:28N 48°26' W 123°26'0 0.0
2014-Nov-20 02:04N 48°26' W 123°26'0 0.0
2014-Nov-20 00:25N 48°26' W 123°26'0 0.0
2014-Nov-19 23:31N 48°26' W 123°26'0 0.0
2014-Nov-19 22:31N 48°26' W 123°26'0 0.0
2014-Nov-19 21:31N 48°26' W 123°26'0 0.0
2014-Nov-19 19:31N 48°26' W 123°26'0 0.0
2014-Nov-19 17:28N 48°26' W 123°26'0 0.0
2014-Nov-19 16:31N 48°26' W 123°26'0 0.0
2014-Nov-19 15:31N 48°26' W 123°26'0 0.0
2014-Nov-19 14:31N 48°26' W 123°26'0 0.0
2014-Nov-19 13:22N 48°26' W 123°26'0 0.0
2014-Nov-19 12:25N 48°26' W 123°26'0 0.0
2014-Nov-19 11:31N 48°26' W 123°26'0 0.0
2014-Nov-19 10:19N 48°26' W 123°26'0 0.0
2014-Nov-19 09:28N 48°26' W 123°26'0 0.0
2014-Nov-19 08:25N 48°26' W 123°26'0 0.0
2014-Nov-19 07:31N 48°26' W 123°26'0 0.0
2014-Nov-19 06:28N 48°26' W 123°26'0 0.0
2014-Nov-19 04:31N 48°26' W 123°26'0 0.0
2014-Nov-19 03:07N 48°26' W 123°26'0 0.0
2014-Nov-19 02:19N 48°26' W 123°26'0 0.0
2014-Nov-18 23:04N 48°26' W 123°26'0 0.0
2014-Nov-18 16:21N 48°26' W 123°26'0 0.0
2014-Nov-18 07:06N 48°26' W 123°26'0 0.0
2014-Nov-18 00:21N 48°26' W 123°26'0 0.0
2014-Nov-17 23:33N 48°26' W 123°26'0 0.0
2014-Nov-17 22:33N 48°26' W 123°26'0 0.0
2014-Nov-17 21:30N 48°26' W 123°26'0 0.0
2014-Nov-17 20:30N 48°26' W 123°26'0 0.0
2014-Nov-17 19:33N 48°26' W 123°26'3 2.6
2014-Nov-17 18:29N 48°23' W 123°27'3 2.6
2014-Nov-17 17:28N 48°26' W 123°26'0 0.0
2014-Nov-17 16:31N 48°26' W 123°26'0 0.0
2014-Nov-17 15:28N 48°26' W 123°26'0 0.0
2014-Nov-17 14:31N 48°26' W 123°26'0 0.0
2014-Nov-17 13:31N 48°26' W 123°26'0 0.0
2014-Nov-17 12:31N 48°26' W 123°26'0 0.0
2014-Nov-17 11:31N 48°26' W 123°26'0 0.0
2014-Nov-17 10:28N 48°26' W 123°26'0 0.0
2014-Nov-17 09:28N 48°26' W 123°26'0 0.0
2014-Nov-17 08:31N 48°26' W 123°26'0 0.0
2014-Nov-17 07:31N 48°26' W 123°26'0 0.0
2014-Nov-17 06:31N 48°26' W 123°26'0 0.0
2014-Nov-17 05:28N 48°26' W 123°26'0 0.0
2014-Nov-17 04:31N 48°26' W 123°26'0 0.0
2014-Nov-17 03:31N 48°26' W 123°26'0 0.0
2014-Nov-17 02:31N 48°26' W 123°26'0 0.0
2014-Nov-17 01:31N 48°26' W 123°26'0 0.0
2014-Nov-17 00:31N 48°26' W 123°26'0 0.0
2014-Nov-16 23:31N 48°26' W 123°26'0 0.0
2014-Nov-16 22:33N 48°26' W 123°26'1 1.3
2014-Nov-16 21:33N 48°25' W 123°27'8 8.1
2014-Nov-16 20:33N 48°24' W 123°15'1814.9
2014-Nov-16 19:22N 48°42' W 123°19'5 2.6
2014-Nov-16 17:31N 48°46' W 123°21'8 6.7
2014-Nov-16 16:22N 48°51' W 123°30'0 0.0
2014-Nov-16 15:31N 48°51' W 123°30'0 0.0
2014-Nov-16 14:31N 48°51' W 123°30'0 0.0
2014-Nov-16 13:31N 48°51' W 123°30'0 0.0
2014-Nov-16 12:31N 48°51' W 123°30'0 0.0
2014-Nov-16 11:31N 48°51' W 123°30'0 0.0
2014-Nov-16 10:31N 48°51' W 123°30'0 0.0
2014-Nov-16 09:31N 48°51' W 123°30'0 0.0
2014-Nov-16 08:31N 48°51' W 123°30'0 0.0
2014-Nov-16 07:31N 48°51' W 123°30'0 0.0
2014-Nov-16 06:31N 48°51' W 123°30'0 0.0
2014-Nov-16 05:28N 48°51' W 123°30'0 0.0
2014-Nov-16 04:31N 48°51' W 123°30'0 0.0
2014-Nov-16 03:31N 48°51' W 123°30'0 0.0
2014-Nov-16 02:31N 48°51' W 123°30'0 0.0
2014-Nov-16 01:31N 48°51' W 123°30'1 1.2
2014-Nov-16 00:22N 48°51' W 123°28'7 8.0
2014-Nov-15 23:32N 48°45' W 123°22'7 7.0
2014-Nov-15 22:33N 48°39' W 123°27'2 2.2
2014-Nov-15 21:31N 48°39' W 123°31'2 1.9
2014-Nov-15 20:33N 48°41' W 123°30'1110.6
2014-Nov-15 19:34N 48°40' W 123°14'1817.6
2014-Nov-15 18:33N 48°22' W 123°16'8 7.6
2014-Nov-15 17:33N 48°25' W 123°27'1 0.1
2014-Nov-14 20:22N 48°26' W 123°26'0 0.0
2014-Nov-14 15:04N 48°26' W 123°26'0 0.0
2014-Nov-14 06:07N 48°26' W 123°26'0 0.0
2014-Nov-14 05:31N 48°26' W 123°26'0 0.0
2014-Nov-14 04:25N 48°26' W 123°26'0 0.0
2014-Nov-14 03:31N 48°26' W 123°26'0 0.0
2014-Nov-14 02:31N 48°26' W 123°26'0 0.0
2014-Nov-14 01:25N 48°26' W 123°26'0 0.0
2014-Nov-13 22:31N 48°26' W 123°26'0 0.0
2014-Nov-13 21:31N 48°26' W 123°26'0 0.0
2014-Nov-13 19:31N 48°26' W 123°26'0 0.0
2014-Nov-13 18:25N 48°26' W 123°26'0 0.0
2014-Nov-13 17:07N 48°26' W 123°26'0 0.0
2014-Nov-13 16:19N 48°26' W 123°26'0 0.0
2014-Nov-13 15:31N 48°26' W 123°26'0 0.0
2014-Nov-13 14:31N 48°26' W 123°26'0 0.0
2014-Nov-13 13:31N 48°26' W 123°26'  

Dump ship's entire track history